Weather History for Tomahawk, WI

Change the Weather History Date:

Thursday, February 28, 2013

  Actual Average (KRHI) Record (KRHI)
Temperature  
Mean Temperature 24 °F 21 °F  
Max Temperature 30 °F 31 °F 48 °F (1985)
Min Temperature 19 °F 11 °F -25 °F (2014)
Degree Days  
Heating Degree Days 40 44  
Month to date heating degree days 1360  
Since 1 July heating degree days 6622  
Cooling Degree Days 0 0  
Month to date cooling degree days 0  
Year to date cooling degree days 0  
Moisture  
Dew Point 18 °F    
Average Humidity 72    
Maximum Humidity 86    
Minimum Humidity 55    
Precipitation  
Precipitation 0.00 in 0.04 in 0.99 in (1939)
Month to date precipitation 0.93  
Year to date precipitation 2.04  
Snow  
Snow 0.00 in - 10.00 in (1939)
Month to date snowfall  
Since 1 July snowfall  
Snow Depth -    
Sea Level Pressure  
Sea Level Pressure 30.03 in    
Wind  
Wind Speed 9 mph (North)    
Max Wind Speed 15 mph    
Max Gust Speed 23 mph    
Visibility 10 miles    
Events      
T = Trace of Precipitation, MM = Missing Value Source: NWS Daily Summary

Daily Weather History Graph

Daily Weather History Graph

Search for Another Location

Airport:

Trip Planner

Search our weather history database for the weather conditions in past years. The results will help you decide how hot, cold, wet, or windy it might be!

Date:

Astronomy

Feb. 28, 2013 Rise Set
Actual Time 6:38 AM CST 5:45 PM CST
Civil Twilight 6:09 AM CST 6:15 PM CST
Nautical Twilight 5:34 AM CST 6:49 PM CST
Astronomical Twilight 5:00 AM CST 7:23 PM CST
Moon 9:25 PM CST (2/28) 7:37 AM CST (2/28)
Length of Visible Light 12h 05m
Length of Day
11h 06m
Waning Gibbous, 90% of the Moon is Illuminated
Feb 28
Waning Gibbous
Mar 4
Last Quarter
Mar 11
New
Mar 19
First Quarter
Mar 27
Full

Hourly Weather History & Observations

Time (CST) Temp. Windchill Dew Point Humidity Pressure Visibility Wind Dir Wind Speed Gust Speed Precip Events Conditions
12:15 AM 28.4 °F 20.4 °F 24.8 °F 86% 29.87 in 7.0 mi North 8.1 mph - N/A   Overcast
12:35 AM 28.4 °F 19.7 °F 23.0 °F 80% 29.87 in 10.0 mi North 9.2 mph - N/A   Overcast
1:15 AM 30.2 °F 25.4 °F 23.0 °F 75% 29.88 in 10.0 mi North 4.6 mph - N/A   Overcast
1:35 AM 30.2 °F 23.4 °F 23.0 °F 75% 29.89 in 10.0 mi North 6.9 mph - N/A   Overcast
1:55 AM 30.2 °F 21.9 °F 23.0 °F 75% 29.89 in 10.0 mi North 9.2 mph 17.3 mph N/A   Overcast
2:15 AM 28.4 °F 19.7 °F 23.0 °F 80% 29.89 in 10.0 mi North 9.2 mph 16.1 mph N/A   Overcast
2:35 AM 28.4 °F 20.4 °F 23.0 °F 80% 29.89 in 10.0 mi North 8.1 mph - N/A   Overcast
2:55 AM 28.4 °F 18.5 °F 23.0 °F 80% 29.90 in 10.0 mi North 11.5 mph 17.3 mph N/A   Overcast
3:15 AM 28.4 °F 18.5 °F 23.0 °F 80% 29.90 in 10.0 mi North 11.5 mph 21.9 mph N/A   Overcast
3:55 AM 28.4 °F 19.7 °F 23.0 °F 80% 29.90 in 10.0 mi North 9.2 mph 18.4 mph N/A   Overcast
4:15 AM 28.4 °F 20.4 °F 23.0 °F 80% 29.91 in 10.0 mi North 8.1 mph 16.1 mph N/A   Overcast
4:35 AM 28.4 °F 19.7 °F 23.0 °F 80% 29.92 in 10.0 mi North 9.2 mph 17.3 mph N/A   Overcast
4:55 AM 28.4 °F 21.2 °F 23.0 °F 80% 29.93 in 10.0 mi North 6.9 mph 19.6 mph N/A   Overcast
5:15 AM 28.4 °F 20.4 °F 23.0 °F 80% 29.93 in 10.0 mi North 8.1 mph - N/A   Overcast
5:35 AM 28.4 °F 19.7 °F 23.0 °F 80% 29.94 in 10.0 mi North 9.2 mph 17.3 mph N/A   Overcast
5:55 AM 26.6 °F 16.8 °F 23.0 °F 86% 29.95 in 10.0 mi North 10.4 mph 19.6 mph N/A   Overcast
6:15 AM 26.6 °F 19.1 °F 23.0 °F 86% 29.95 in 10.0 mi North 6.9 mph - N/A   Overcast
6:35 AM 26.6 °F 16.8 °F 21.2 °F 80% 29.96 in 10.0 mi NNW 10.4 mph - N/A   Overcast
6:55 AM 26.6 °F 17.5 °F 21.2 °F 80% 29.96 in 10.0 mi North 9.2 mph 16.1 mph N/A   Overcast
7:15 AM 26.6 °F 15.7 °F 21.2 °F 80% 29.97 in 10.0 mi North 12.7 mph 18.4 mph N/A   Overcast
7:35 AM 26.6 °F 17.5 °F 21.2 °F 80% 29.97 in 10.0 mi North 9.2 mph 21.9 mph N/A   Overcast
7:55 AM 26.6 °F 16.8 °F 19.4 °F 74% 29.98 in 10.0 mi North 10.4 mph 19.6 mph N/A   Overcast
8:15 AM 26.6 °F 16.8 °F 21.2 °F 80% 29.99 in 10.0 mi North 10.4 mph 18.4 mph N/A   Overcast
8:35 AM 26.6 °F 18.2 °F 19.4 °F 74% 30.00 in 10.0 mi North 8.1 mph 18.4 mph N/A   Overcast
8:55 AM 26.6 °F 16.2 °F 19.4 °F 74% 30.00 in 10.0 mi North 11.5 mph 18.4 mph N/A   Overcast
9:15 AM 26.6 °F 16.8 °F 19.4 °F 74% 30.01 in 10.0 mi NNE 10.4 mph - N/A   Overcast
9:35 AM 26.6 °F 17.5 °F 19.4 °F 74% 30.01 in 10.0 mi North 9.2 mph 23.0 mph N/A   Overcast
9:55 AM 26.6 °F 16.2 °F 19.4 °F 74% 30.02 in 10.0 mi North 11.5 mph 18.4 mph N/A   Overcast
10:15 AM 26.6 °F 15.7 °F 19.4 °F 74% 30.02 in 10.0 mi North 12.7 mph 19.6 mph N/A   Overcast
10:35 AM 26.6 °F 17.5 °F 19.4 °F 74% 30.02 in 10.0 mi North 9.2 mph - N/A   Overcast
10:55 AM 26.6 °F 18.2 °F 19.4 °F 74% 30.02 in 10.0 mi NNE 8.1 mph - N/A   Overcast
11:15 AM 26.6 °F 19.1 °F 19.4 °F 74% 30.03 in 10.0 mi North 6.9 mph 17.3 mph N/A   Overcast
11:35 AM 28.4 °F 21.2 °F 19.4 °F 69% 30.04 in 10.0 mi North 6.9 mph - N/A   Overcast
11:55 AM 28.4 °F 22.2 °F 19.4 °F 69% 30.04 in 10.0 mi North 5.8 mph - N/A   Overcast
12:15 PM 26.6 °F 15.7 °F 17.6 °F 69% 30.04 in 10.0 mi North 12.7 mph 18.4 mph N/A   Overcast
12:35 PM 28.4 °F 17.0 °F 17.6 °F 64% 30.04 in 10.0 mi NNE 15.0 mph 20.7 mph N/A   Overcast
12:55 PM 28.4 °F 20.4 °F 17.6 °F 64% 30.04 in 10.0 mi NNE 8.1 mph 17.3 mph N/A   Overcast
1:15 PM 28.4 °F 18.5 °F 15.8 °F 59% 30.04 in 10.0 mi North 11.5 mph 18.4 mph N/A   Overcast
1:35 PM 28.4 °F 19.7 °F 15.8 °F 59% 30.04 in 10.0 mi NE 9.2 mph 20.7 mph N/A   Overcast
1:55 PM 28.4 °F 18.5 °F 15.8 °F 59% 30.04 in 10.0 mi NNE 11.5 mph 17.3 mph N/A   Overcast
2:15 PM 28.4 °F 18.0 °F 15.8 °F 59% 30.05 in 10.0 mi North 12.7 mph 19.6 mph N/A   Overcast
2:35 PM 28.4 °F 18.5 °F 14.0 °F 55% 30.05 in 10.0 mi North 11.5 mph 16.1 mph N/A   Overcast
2:55 PM 28.4 °F 17.5 °F 17.6 °F 64% 30.05 in 10.0 mi North 13.8 mph 19.6 mph N/A   Overcast
3:15 PM 26.6 °F 16.2 °F 17.6 °F 69% 30.05 in 10.0 mi North 11.5 mph 17.3 mph N/A   Overcast
3:35 PM 26.6 °F 16.2 °F 15.8 °F 64% 30.06 in 10.0 mi NNW 11.5 mph 17.3 mph N/A   Overcast
3:55 PM 26.6 °F 16.2 °F 14.0 °F 59% 30.07 in 10.0 mi North 11.5 mph 16.1 mph N/A   Overcast
4:15 PM 26.6 °F 16.8 °F 14.0 °F 59% 30.07 in 10.0 mi North 10.4 mph 16.1 mph N/A   Overcast
4:35 PM 26.6 °F 16.2 °F 14.0 °F 59% 30.07 in 10.0 mi North 11.5 mph 19.6 mph N/A   Overcast
4:55 PM 26.6 °F 18.2 °F 15.8 °F 64% 30.08 in 10.0 mi North 8.1 mph 16.1 mph N/A   Overcast
5:15 PM 26.6 °F 18.2 °F 15.8 °F 64% 30.09 in 10.0 mi North 8.1 mph 18.4 mph N/A   Overcast
5:35 PM 26.6 °F 17.5 °F 15.8 °F 64% 30.10 in 10.0 mi North 9.2 mph - N/A   Overcast
5:55 PM 24.8 °F 14.6 °F 15.8 °F 69% 30.10 in 10.0 mi North 10.4 mph - N/A   Overcast
6:15 PM 23.0 °F 14.7 °F 15.8 °F 74% 30.11 in 10.0 mi North 6.9 mph - N/A   Overcast
6:35 PM 23.0 °F 13.9 °F 15.8 °F 74% 30.11 in 10.0 mi NNE 8.1 mph - N/A   Overcast
6:55 PM 23.0 °F 13.9 °F 15.8 °F 74% 30.12 in 10.0 mi North 8.1 mph - N/A   Overcast
7:15 PM 23.0 °F 13.1 °F 14.0 °F 68% 30.12 in 10.0 mi North 9.2 mph - N/A   Overcast
7:35 PM 21.2 °F 12.6 °F 14.0 °F 74% 30.13 in 10.0 mi NE 6.9 mph 17.3 mph N/A   Overcast
7:55 PM 21.2 °F 10.9 °F 14.0 °F 74% 30.14 in 10.0 mi NNE 9.2 mph - N/A   Overcast
8:15 PM 21.2 °F 11.7 °F 12.2 °F 68% 30.14 in 10.0 mi NNE 8.1 mph - N/A   Overcast
8:35 PM 21.2 °F 11.7 °F 12.2 °F 68% 30.15 in 10.0 mi NNE 8.1 mph 17.3 mph N/A   Overcast
8:55 PM 21.2 °F 11.7 °F 12.2 °F 68% 30.15 in 10.0 mi NNE 8.1 mph 17.3 mph N/A   Overcast
9:15 PM 21.2 °F 10.1 °F 14.0 °F 74% 30.15 in 10.0 mi NNE 10.4 mph 17.3 mph N/A   Overcast
9:35 PM 21.2 °F 11.7 °F 12.2 °F 68% 30.16 in 10.0 mi NE 8.1 mph - N/A   Overcast
9:55 PM 21.2 °F 8.9 °F 14.0 °F 74% 30.16 in 10.0 mi NNE 12.7 mph 20.7 mph N/A   Overcast
10:15 PM 19.4 °F 7.9 °F 12.2 °F 74% 30.16 in 10.0 mi NNE 10.4 mph 17.3 mph N/A   Overcast
10:35 PM 19.4 °F 8.6 °F 12.2 °F 74% 30.16 in 10.0 mi NNE 9.2 mph - N/A   Overcast
10:55 PM 19.4 °F 10.4 °F 12.2 °F 74% 30.16 in 10.0 mi NNE 6.9 mph - N/A   Overcast
11:15 PM 19.4 °F 10.4 °F 12.2 °F 74% 30.16 in 10.0 mi North 6.9 mph - N/A   Overcast
11:35 PM 21.2 °F 10.9 °F 14.0 °F 74% 30.16 in 10.0 mi NNE 9.2 mph - N/A   Overcast
11:55 PM 21.2 °F 12.6 °F 14.0 °F 74% 30.15 in 10.0 mi NNE 6.9 mph - N/A   Overcast